{"data":{"norad_id":47854,"intl_designator":"2021-020A","name":"YAOGAN-31 04A","alt_names":[],"object_type":"PAYLOAD","status":"ACTIVE","operator":null,"country":"PRC","launch_date":"2021-03-13","launch_site_code":"JSC","launch_vehicle":null,"mission":null,"orbit_class":"UNKNOWN","rcs_meters":null,"size_class":null,"mass_kg":null,"dimensions":null,"purposes":[],"wikipedia_slug":null,"has_3d_model":false,"image_url":null,"decayed_at":null,"tle_current":{"epoch":"2026-09-20T21:20:53.181024Z","epoch_age_seconds":51309,"freshness":"FRESH","line1":"1 47854U 21020A   26263.88950441  .00000023  00000+0  17327-3 0  9998","line2":"2 47854  63.4076  12.0502 0183230   0.7852 359.3427 13.45453227271341","mean_motion":13.45453227,"eccentricity":0.018323,"inclination_deg":63.4076,"raan_deg":12.0502,"arg_perigee_deg":0.7852,"mean_anomaly_deg":359.3427,"bstar":0.00017327,"rev_number":27134,"period_min":107.02713190638,"perigee_km":952.2131607162,"apogee_km":1225.8551142199,"semimajor_km":7467.171137468,"source":"CELESTRAK","updated_at":"2026-09-21T09:00:07.608248Z"}}}